Home   Weather   Fregenal de la Sierra   Past weeks
Flag for Spain

Past Weather in Fregenal de la Sierra, Badajoz, Spain — Yesterday and Last 2 Weeks

Now
59 °F

Passing clouds.


Feels Like: 60 °F
Forecast: 68 / 47 °F
Wind: 3 mph from Northwest

Location: Rota Airport

Current Time: Oct 21, 2019 at 10:33:20 pm

Latest Report: Oct 21, 2019 at 10:00 pm


Visibility: N/A

Pressure: 30.01 "Hg

Humidity: 68%

Dew Point: 48 °F

Location of Fregenal de la SierraLocation

Past Weather in Fregenal de la Sierra — Graph

°F

Fregenal de la Sierra Temperature Yesterday

Maximum temperature yesterday: 66 °F (at 3:00 pm)
Minimum temperature yesterday: 59 °F (at 6:00 am)
Average temperature yesterday: 63 °F

High & Low Weather Summary for the Past Weeks

 TemperatureHumidityPressure
High88 °F (Oct 8, 4:00 pm)100% (Oct 14, 1:00 pm)30.21 "Hg (Oct 14, 1:00 pm)
Low46 °F (Oct 16, 8:00 am)31% (Oct 15, 4:00 pm)29.80 "Hg (Oct 19, 6:00 pm)
Average68 °F74%30.02 "Hg
* Reported Oct 6 9:00 pm — Oct 21 9:00 pm, Fregenal de la Sierra. Weather by CustomWeather, © 2019

Note: Actual official high and low records may vary slightly from our data, if they occured in-between our weather recording intervals... More about our weather records

Advertising

Fregenal de la Sierra Weather History for the Previous 24 Hours

Scroll right to see more
 ConditionsComfort  
Time TempWeatherWind HumidityBarometerVisibility
9:00 pm
Mon, Oct 21
61 °FPassing clouds.No wind63%29.98 "HgN/A
8:00 pm63 °FPassing clouds.5 mph56%29.98 "HgN/A
7:00 pm66 °FPassing clouds.8 mph49%29.98 "HgN/A
6:00 pm66 °FPassing clouds.9 mph52%29.98 "HgN/A
5:00 pm68 °FPassing clouds.9 mph46%29.98 "HgN/A
4:00 pm70 °FPassing clouds.8 mph43%30.01 "HgN/A
3:00 pm68 °FPassing clouds.5 mph49%30.01 "HgN/A
2:00 pm68 °FPassing clouds.1 mph49%30.04 "HgN/A
1:00 pm66 °FPassing clouds.3 mph52%30.04 "HgN/A
12:00 pm63 °FPassing clouds.6 mph73%30.07 "HgN/A
11:00 am59 °FPassing clouds.3 mph82%30.04 "HgN/A
10:00 am55 °FPassing clouds.6 mph88%30.04 "HgN/A
9:00 am52 °FPassing clouds.5 mph88%30.01 "HgN/A
8:00 am52 °FPassing clouds.3 mph94%30.01 "HgN/A
7:00 am52 °FPassing clouds.3 mph94%30.01 "HgN/A
6:00 am52 °FClear.5 mph94%30.01 "Hg10 mi
5:00 am54 °FPassing clouds.6 mph88%30.01 "HgN/A
4:00 am54 °FPassing clouds.5 mph88%30.01 "HgN/A
3:00 am55 °FPassing clouds.2 mph82%30.01 "HgN/A
2:00 am55 °FPassing clouds.6 mph88%30.01 "HgN/A
1:00 am57 °FPassing clouds.No wind82%30.01 "HgN/A
12:00 am57 °FClear.No wind88%30.01 "Hg10 mi
11:00 pm
Sun, Oct 20
63 °FClear.No wind73%30.01 "Hg10 mi
10:00 pm63 °FPassing clouds.6 mph73%30.01 "HgN/A
Weather by CustomWeather, © 2019

See weather overview